TimeCST,TemperatureF,Dew PointF,Humidity,Sea Level PressureIn,VisibilityMPH,Wind Direction,Wind SpeedMPH,Gust SpeedMPH,PrecipitationIn,Events,Conditions,WindDirDegrees,DateUTC
12:10 AM,3.9,-2.2,76,30.13,10.0,NW,17.3,25.3,N/A,,Clear,320,2013-01-20 06:10:00
12:30 AM,3.9,-3.1,73,30.16,10.0,NW,18.4,21.9,N/A,,Clear,310,2013-01-20 06:30:00
12:50 AM,3.7,-2.9,74,30.16,10.0,NW,18.4,26.5,N/A,,Clear,310,2013-01-20 06:50:00
1:10 AM,3.2,-3.5,74,30.18,10.0,NW,16.1,27.6,N/A,,Clear,310,2013-01-20 07:10:00
1:29 AM,3.0,-4.0,73,30.19,10.0,NW,16.1,23.0,N/A,,Clear,310,2013-01-20 07:29:00
1:49 AM,2.8,-3.6,74,30.20,10.0,NW,17.3,-,N/A,,Clear,310,2013-01-20 07:49:00
2:10 AM,2.8,-3.8,74,30.20,10.0,NW,13.8,20.7,N/A,,Clear,320,2013-01-20 08:10:00
2:29 AM,2.7,-3.6,75,30.22,10.0,NW,18.4,-,N/A,,Clear,310,2013-01-20 08:29:00
2:50 AM,2.3,-4.0,75,30.22,10.0,NW,16.1,24.2,N/A,,Clear,310,2013-01-20 08:50:00
3:10 AM,2.3,-3.6,76,30.23,10.0,NW,16.1,-,N/A,,Clear,310,2013-01-20 09:10:00
3:30 AM,2.1,-3.6,77,30.23,10.0,NW,18.4,-,N/A,,Clear,310,2013-01-20 09:30:00
3:49 AM,1.9,-4.0,76,30.24,10.0,NW,17.3,21.9,N/A,,Clear,310,2013-01-20 09:49:00
4:10 AM,1.6,-4.0,77,30.23,10.0,NW,18.4,-,N/A,,Clear,320,2013-01-20 10:10:00
4:30 AM,1.4,-4.2,77,30.25,10.0,NW,15.0,-,N/A,,Clear,310,2013-01-20 10:30:00
4:50 AM,1.4,-4.0,78,30.25,10.0,NW,12.7,20.7,N/A,,Clear,320,2013-01-20 10:50:00
5:10 AM,1.4,-4.0,78,30.25,10.0,NW,13.8,21.9,N/A,,Clear,310,2013-01-20 11:10:00
5:29 AM,1.2,-4.2,78,30.25,10.0,NW,15.0,-,N/A,,Clear,310,2013-01-20 11:29:00
5:50 AM,0.9,-4.2,79,30.25,10.0,NW,12.7,-,N/A,,Clear,310,2013-01-20 11:50:00
6:10 AM,0.5,-4.4,80,30.26,10.0,NW,10.4,-,N/A,,Clear,320,2013-01-20 12:10:00
6:29 AM,0.5,-4.4,80,30.27,10.0,NW,11.5,-,N/A,,Clear,320,2013-01-20 12:29:00
6:49 AM,0.5,-4.7,79,30.27,10.0,NW,11.5,-,N/A,,Clear,320,2013-01-20 12:49:00
7:10 AM,0.5,-4.7,79,30.26,10.0,NNW,8.1,-,N/A,,Clear,330,2013-01-20 13:10:00
7:30 AM,0.7,-4.2,80,30.27,10.0,NNW,8.1,-,N/A,,Scattered Clouds,340,2013-01-20 13:30:00
7:50 AM,1.2,-4.0,79,30.26,10.0,NNW,10.4,-,N/A,,Mostly Cloudy,330,2013-01-20 13:50:00
8:10 AM,1.4,-3.8,79,30.27,10.0,NW,8.1,-,N/A,,Mostly Cloudy,310,2013-01-20 14:10:00
8:30 AM,1.9,-3.6,77,30.28,10.0,NW,5.8,-,N/A,,Scattered Clouds,320,2013-01-20 14:30:00
8:50 AM,2.7,-2.7,78,30.29,10.0,NW,5.8,-,N/A,,Scattered Clouds,320,2013-01-20 14:50:00
9:10 AM,2.8,-3.1,76,30.31,10.0,NW,9.2,-,N/A,,Scattered Clouds,320,2013-01-20 15:10:00
9:29 AM,3.6,-2.2,77,30.31,10.0,NW,8.1,-,N/A,,Scattered Clouds,310,2013-01-20 15:29:00
9:50 AM,3.9,-2.2,76,30.31,10.0,NW,10.4,-,N/A,,Mostly Cloudy,310,2013-01-20 15:50:00
10:10 AM,4.1,-2.0,76,30.32,10.0,WNW,9.2,-,N/A,,Overcast,300,2013-01-20 16:10:00
10:30 AM,5.0,-1.5,75,30.33,10.0,NW,11.5,-,N/A,,Overcast,310,2013-01-20 16:30:00
10:50 AM,5.7,-1.7,72,30.32,10.0,NW,11.5,-,N/A,,Mostly Cloudy,310,2013-01-20 16:50:00
11:10 AM,6.4,-1.3,71,30.31,10.0,NW,10.4,-,N/A,,Mostly Cloudy,320,2013-01-20 17:10:00
11:30 AM,7.2,-1.5,68,30.31,10.0,WNW,10.4,-,N/A,,Mostly Cloudy,290,2013-01-20 17:30:00
11:49 AM,7.5,-1.5,67,30.30,10.0,NW,11.5,-,N/A,,Overcast,320,2013-01-20 17:49:00
12:10 PM,8.4,-0.9,66,30.30,10.0,NNW,10.4,-,N/A,,Overcast,330,2013-01-20 18:10:00
12:29 PM,9.1,-1.7,62,30.29,10.0,WNW,12.7,-,N/A,,Mostly Cloudy,300,2013-01-20 18:29:00
12:49 PM,9.5,-1.8,60,30.29,10.0,NW,13.8,20.7,N/A,,Scattered Clouds,310,2013-01-20 18:49:00
1:10 PM,10.2,-1.3,60,30.29,10.0,WNW,15.0,-,N/A,,Mostly Cloudy,300,2013-01-20 19:10:00
1:50 PM,10.8,-2.6,55,30.27,10.0,NW,15.0,18.4,N/A,,Overcast,310,2013-01-20 19:50:00
2:09 PM,10.2,-2.9,55,30.27,10.0,NW,13.8,-,N/A,,Mostly Cloudy,310,2013-01-20 20:09:00
2:30 PM,11.3,-2.7,53,30.27,10.0,NW,11.5,-,N/A,,Mostly Cloudy,310,2013-01-20 20:30:00
2:49 PM,11.3,-2.2,55,30.26,10.0,NW,11.5,16.1,N/A,,Scattered Clouds,310,2013-01-20 20:49:00
3:10 PM,11.8,-2.0,54,30.26,10.0,WNW,16.1,-,N/A,,Mostly Cloudy,290,2013-01-20 21:10:00
3:30 PM,10.6,-1.5,58,30.26,10.0,WNW,16.1,-,N/A,,Scattered Clouds,290,2013-01-20 21:30:00
3:49 PM,10.8,-2.2,56,30.26,10.0,WNW,18.4,21.9,N/A,,Clear,290,2013-01-20 21:49:00
4:10 PM,10.8,-1.7,57,30.25,10.0,WNW,13.8,-,N/A,,Clear,300,2013-01-20 22:10:00
4:29 PM,10.2,-1.7,59,30.25,10.0,WNW,16.1,21.9,N/A,,Clear,290,2013-01-20 22:29:00
4:50 PM,9.3,-0.9,63,30.24,10.0,NW,12.7,-,N/A,,Clear,310,2013-01-20 22:50:00
5:10 PM,8.6,-0.8,66,30.24,10.0,WNW,11.5,16.1,N/A,,Clear,290,2013-01-20 23:10:00
5:30 PM,8.2,-0.4,68,30.23,10.0,WNW,11.5,-,N/A,,Clear,290,2013-01-20 23:30:00
5:49 PM,8.4,-0.0,68,30.23,10.0,WNW,13.8,17.3,N/A,,Mostly Cloudy,290,2013-01-20 23:49:00
6:10 PM,8.1,-0.4,68,30.23,10.0,WNW,12.7,-,N/A,,Mostly Cloudy,300,2013-01-21 00:10:00
6:30 PM,7.7,0.1,71,30.23,10.0,WNW,13.8,18.4,N/A,,Mostly Cloudy,300,2013-01-21 00:30:00
6:50 PM,8.4,0.9,71,30.23,10.0,WNW,13.8,17.3,N/A,,Overcast,290,2013-01-21 00:50:00
7:10 PM,8.6,2.1,75,30.23,5.0,WNW,12.7,17.3,N/A,,Haze,300,2013-01-21 01:10:00
7:30 PM,8.2,3.2,80,30.23,2.5,NW,12.7,-,N/A,Snow,Light Snow,320,2013-01-21 01:30:00
7:50 PM,7.7,2.5,79,30.23,3.0,NW,11.5,-,N/A,Snow,Light Snow,320,2013-01-21 01:50:00
8:09 PM,7.7,2.3,79,30.23,5.0,NW,12.7,-,N/A,,Haze,310,2013-01-21 02:09:00
8:29 PM,7.5,2.8,81,30.22,4.0,NW,12.7,-,N/A,,Overcast,310,2013-01-21 02:29:00
8:50 PM,6.8,1.0,77,30.21,10.0,NW,16.1,21.9,N/A,,Overcast,310,2013-01-21 02:50:00
9:10 PM,5.9,-1.5,72,30.21,10.0,WNW,19.6,-,N/A,,Scattered Clouds,300,2013-01-21 03:10:00
9:30 PM,5.7,-1.8,71,30.20,10.0,NW,17.3,-,N/A,,Clear,310,2013-01-21 03:30:00
9:50 PM,5.0,-1.5,75,30.20,10.0,WNW,15.0,19.6,N/A,,Clear,300,2013-01-21 03:50:00
10:10 PM,5.5,0.3,79,30.20,4.0,WNW,13.8,-,N/A,Snow,Light Snow,300,2013-01-21 04:10:00
10:30 PM,4.1,-3.3,71,30.20,10.0,NW,18.4,26.5,N/A,,Scattered Clouds,310,2013-01-21 04:30:00
10:49 PM,3.6,-3.6,72,30.20,10.0,WNW,18.4,26.5,N/A,,Clear,300,2013-01-21 04:49:00
11:09 PM,3.0,-4.0,73,30.19,10.0,WNW,17.3,25.3,N/A,,Clear,300,2013-01-21 05:09:00
11:30 PM,2.1,-5.1,72,30.19,10.0,NW,21.9,28.8,N/A,,Clear,310,2013-01-21 05:30:00
11:49 PM,1.8,-4.9,74,30.19,10.0,NW,19.6,-,N/A,,Clear,310,2013-01-21 05:49:00